Time,TemperatureF,DewpointF,PressureIn,WindDirection,WindDirectionDegrees,WindSpeedMPH,WindSpeedGustMPH,Humidity,HourlyPrecipIn,Conditions,Clouds,dailyrainin,SoftwareType,DateUTC
2013-02-26 00:01:00,31.0,22.0,30.08,ENE,58,0.0,3.0,68,0.00,,,0.00,,2013-02-26 05:01:00,
2013-02-26 00:12:00,32.0,22.0,30.07,ENE,57,1.0,2.0,65,0.00,,,0.00,,2013-02-26 05:12:00,
2013-02-26 00:22:00,32.0,22.0,30.07,ENE,57,1.0,2.0,65,0.00,,,0.00,,2013-02-26 05:22:00,
2013-02-26 00:32:00,32.0,21.0,30.07,ENE,57,0.0,2.0,64,0.00,,,0.00,,2013-02-26 05:32:00,
2013-02-26 00:43:00,32.0,21.0,30.07,ENE,57,0.0,2.0,64,0.00,,,0.00,,2013-02-26 05:43:00,
2013-02-26 00:52:00,33.0,22.0,30.07,East,93,0.0,3.0,63,0.00,,,0.00,,2013-02-26 05:52:00,
2013-02-26 01:02:00,34.0,22.0,30.08,East,93,0.0,0.0,60,0.00,,,0.00,,2013-02-26 06:02:00,
2013-02-26 01:11:00,34.0,22.0,30.08,East,93,0.0,0.0,60,0.00,,,0.00,,2013-02-26 06:11:00,
2013-02-26 01:21:00,33.0,21.0,30.06,ENE,61,0.0,2.0,61,0.00,,,0.00,,2013-02-26 06:21:00,
2013-02-26 01:32:00,34.0,22.0,30.07,ENE,76,0.0,1.0,60,0.00,,,0.00,,2013-02-26 06:32:00,
2013-02-26 01:42:00,34.0,22.0,30.07,ENE,76,0.0,1.0,60,0.00,,,0.00,,2013-02-26 06:42:00,
2013-02-26 01:52:00,34.0,21.0,30.08,ENE,69,0.0,1.0,59,0.00,,,0.00,,2013-02-26 06:52:00,
2013-02-26 02:01:00,35.0,22.0,30.07,East,80,0.0,2.0,58,0.00,,,0.00,,2013-02-26 07:01:00,
2013-02-26 02:11:00,35.0,22.0,30.07,East,80,0.0,2.0,58,0.00,,,0.00,,2013-02-26 07:11:00,
2013-02-26 02:22:00,35.0,21.0,30.07,SE,134,1.0,4.0,56,0.00,,,0.00,,2013-02-26 07:22:00,
2013-02-26 02:32:00,35.0,21.0,30.07,East,83,0.0,2.0,57,0.00,,,0.00,,2013-02-26 07:32:00,
2013-02-26 02:42:00,35.0,21.0,30.07,East,83,0.0,2.0,57,0.00,,,0.00,,2013-02-26 07:42:00,
2013-02-26 02:52:00,35.0,21.0,30.06,ESE,102,1.0,5.0,56,0.00,,,0.00,,2013-02-26 07:52:00,
2013-02-26 03:02:00,35.0,21.0,30.05,ENE,64,0.0,2.0,56,0.00,,,0.00,,2013-02-26 08:02:00,
2013-02-26 03:11:00,35.0,21.0,30.03,ENE,69,0.0,4.0,57,0.00,,,0.00,,2013-02-26 08:11:00,
2013-02-26 03:21:00,35.0,21.0,30.03,ENE,69,0.0,4.0,57,0.00,,,0.00,,2013-02-26 08:21:00,
2013-02-26 03:32:00,35.0,20.0,30.03,ENE,66,0.0,4.0,55,0.00,,,0.00,,2013-02-26 08:32:00,
2013-02-26 03:42:00,35.0,20.0,30.03,ENE,66,0.0,4.0,55,0.00,,,0.00,,2013-02-26 08:42:00,
2013-02-26 03:52:00,35.0,20.0,30.02,ENE,59,0.0,2.0,55,0.00,,,0.00,,2013-02-26 08:52:00,
2013-02-26 04:02:00,36.0,21.0,30.01,ENE,60,2.0,3.0,54,0.00,,,0.00,,2013-02-26 09:02:00,
2013-02-26 04:11:00,36.0,21.0,30.01,ENE,60,2.0,3.0,54,0.00,,,0.00,,2013-02-26 09:11:00,
2013-02-26 04:21:00,36.0,21.0,30.01,ENE,73,0.0,5.0,54,0.00,,,0.00,,2013-02-26 09:21:00,
2013-02-26 04:32:00,35.0,20.0,30.00,ESE,114,1.0,5.0,55,0.00,,,0.00,,2013-02-26 09:32:00,
2013-02-26 04:43:00,35.0,20.0,30.00,ESE,114,1.0,5.0,55,0.00,,,0.00,,2013-02-26 09:43:00,
2013-02-26 04:52:00,36.0,21.0,29.98,ENE,69,1.0,4.0,55,0.00,,,0.00,,2013-02-26 09:52:00,
2013-02-26 05:01:00,36.0,21.0,29.98,NE,51,1.0,3.0,54,0.00,,,0.00,,2013-02-26 10:01:00,
2013-02-26 05:11:00,36.0,21.0,29.98,NE,51,1.0,3.0,54,0.00,,,0.00,,2013-02-26 10:11:00,
2013-02-26 05:21:00,36.0,21.0,29.97,North,355,0.0,3.0,55,0.00,,,0.00,,2013-02-26 10:21:00,
2013-02-26 05:31:00,36.0,21.0,29.99,SE,130,0.0,2.0,55,0.00,,,0.00,,2013-02-26 10:31:00,
2013-02-26 05:42:00,36.0,21.0,29.99,SE,130,0.0,2.0,55,0.00,,,0.00,,2013-02-26 10:42:00,
2013-02-26 05:52:00,36.0,21.0,29.99,ESE,122,0.0,6.0,55,0.00,,,0.00,,2013-02-26 10:52:00,
2013-02-26 06:01:00,36.0,21.0,29.98,NE,41,1.0,3.0,53,0.00,,,0.00,,2013-02-26 11:01:00,
2013-02-26 06:12:00,36.0,21.0,29.98,NE,41,1.0,3.0,53,0.00,,,0.00,,2013-02-26 11:12:00,
2013-02-26 06:22:00,36.0,21.0,29.99,ENE,72,2.0,5.0,53,0.00,,,0.00,,2013-02-26 11:22:00,
2013-02-26 06:32:00,37.0,21.0,29.98,East,86,1.0,4.0,52,0.00,,,0.00,,2013-02-26 11:32:00,
2013-02-26 06:42:00,37.0,21.0,29.98,East,86,1.0,4.0,52,0.00,,,0.00,,2013-02-26 11:42:00,
2013-02-26 06:53:00,37.0,21.0,29.98,East,84,1.0,5.0,52,0.00,,,0.00,,2013-02-26 11:53:00,
2013-02-26 07:02:00,37.0,21.0,29.96,ESE,122,2.0,4.0,53,0.00,,,0.00,,2013-02-26 12:02:00,
2013-02-26 07:11:00,37.0,21.0,29.96,ESE,122,2.0,4.0,53,0.00,,,0.00,,2013-02-26 12:11:00,
2013-02-26 07:22:00,37.0,21.0,29.96,East,83,3.0,7.0,53,0.00,,,0.00,,2013-02-26 12:22:00,
2013-02-26 07:32:00,37.0,21.0,29.96,ESE,123,3.0,7.0,53,0.00,,,0.00,,2013-02-26 12:32:00,
2013-02-26 07:42:00,37.0,21.0,29.96,ESE,123,3.0,7.0,53,0.00,,,0.00,,2013-02-26 12:42:00,
2013-02-26 07:53:00,37.0,21.0,29.96,North,355,1.0,4.0,52,0.00,,,0.00,,2013-02-26 12:53:00,
2013-02-26 08:02:00,38.0,22.0,29.96,ESE,110,2.0,5.0,52,0.00,,,0.00,,2013-02-26 13:02:00,
2013-02-26 08:11:00,38.0,22.0,29.96,ESE,110,2.0,5.0,52,0.00,,,0.00,,2013-02-26 13:11:00,
2013-02-26 08:22:00,38.0,22.0,29.95,East,87,4.0,9.0,51,0.00,,,0.00,,2013-02-26 13:22:00,
2013-02-26 08:32:00,39.0,22.0,29.95,East,92,3.0,7.0,51,0.00,,,0.00,,2013-02-26 13:32:00,
2013-02-26 08:42:00,39.0,22.0,29.95,East,92,3.0,7.0,51,0.00,,,0.00,,2013-02-26 13:42:00,
2013-02-26 08:52:00,39.0,22.0,29.95,ENE,69,1.0,4.0,51,0.00,,,0.00,,2013-02-26 13:52:00,
2013-02-26 09:01:00,39.0,22.0,29.95,ENE,59,3.0,8.0,50,0.00,,,0.00,,2013-02-26 14:01:00,
2013-02-26 09:11:00,39.0,22.0,29.95,ENE,59,3.0,8.0,50,0.00,,,0.00,,2013-02-26 14:11:00,
2013-02-26 09:21:00,40.0,23.0,29.95,ESE,117,2.0,11.0,51,0.00,,,0.00,,2013-02-26 14:21:00,
2013-02-26 09:32:00,41.0,23.0,29.96,SE,138,3.0,7.0,49,0.00,,,0.00,,2013-02-26 14:32:00,
2013-02-26 09:42:00,41.0,23.0,29.96,SE,138,3.0,7.0,49,0.00,,,0.00,,2013-02-26 14:42:00,
2013-02-26 09:52:00,41.0,23.0,29.94,SE,124,2.0,6.0,49,0.00,,,0.00,,2013-02-26 14:52:00,
2013-02-26 10:02:00,41.0,23.0,29.93,SE,144,4.0,10.0,49,0.00,,,0.00,,2013-02-26 15:02:00,
2013-02-26 10:11:00,41.0,23.0,29.93,SE,144,4.0,10.0,49,0.00,,,0.00,,2013-02-26 15:11:00,
2013-02-26 10:22:00,42.0,25.0,29.92,ESE,109,2.0,7.0,50,0.00,,,0.00,,2013-02-26 15:22:00,
2013-02-26 10:32:00,41.0,24.0,29.93,SE,130,5.0,12.0,50,0.00,,,0.00,,2013-02-26 15:32:00,
2013-02-26 10:42:00,41.0,24.0,29.93,SE,130,5.0,12.0,50,0.00,,,0.00,,2013-02-26 15:42:00,
2013-02-26 10:52:00,41.0,25.0,29.93,SSE,150,3.0,9.0,52,0.00,,,0.00,,2013-02-26 15:52:00,
2013-02-26 11:01:00,41.0,25.0,29.93,East,81,3.0,14.0,53,0.00,,,0.00,,2013-02-26 16:01:00,
2013-02-26 11:11:00,41.0,25.0,29.93,East,81,3.0,14.0,53,0.00,,,0.00,,2013-02-26 16:11:00,
2013-02-26 11:22:00,40.0,26.0,29.93,ESE,123,5.0,14.0,57,0.00,,,0.00,,2013-02-26 16:22:00,
2013-02-26 11:32:00,40.0,29.0,29.93,SE,146,2.0,13.0,64,0.00,,,0.00,,2013-02-26 16:32:00,
2013-02-26 11:42:00,40.0,29.0,29.93,SE,146,2.0,13.0,64,0.00,,,0.00,,2013-02-26 16:42:00,
2013-02-26 11:52:00,39.0,29.0,29.92,ENE,59,2.0,9.0,66,0.00,,,0.00,,2013-02-26 16:52:00,
2013-02-26 12:01:00,39.0,28.0,29.91,ESE,117,6.0,16.0,64,0.00,,,0.00,,2013-02-26 17:01:00,
2013-02-26 12:11:00,38.0,29.0,29.90,ENE,75,7.0,10.0,70,0.01,,,0.01,,2013-02-26 17:11:00,
2013-02-26 12:22:00,38.0,29.0,29.90,ENE,75,7.0,10.0,70,0.01,,,0.01,,2013-02-26 17:22:00,
2013-02-26 12:32:00,38.0,30.0,29.90,ESE,120,5.0,11.0,73,0.01,,,0.01,,2013-02-26 17:32:00,
2013-02-26 12:42:00,38.0,30.0,29.90,ESE,120,5.0,11.0,73,0.01,,,0.01,,2013-02-26 17:42:00,
2013-02-26 12:52:00,37.0,30.0,29.89,SSE,153,7.0,18.0,75,0.01,,,0.01,,2013-02-26 17:52:00,
2013-02-26 13:02:00,37.0,30.0,29.87,SE,133,4.0,13.0,75,0.02,,,0.02,,2013-02-26 18:02:00,
2013-02-26 13:12:00,37.0,30.0,29.87,SE,133,4.0,13.0,75,0.02,,,0.02,,2013-02-26 18:12:00,
2013-02-26 13:21:00,37.0,30.0,29.85,ESE,118,4.0,13.0,77,0.01,,,0.02,,2013-02-26 18:21:00,
2013-02-26 13:32:00,37.0,31.0,29.84,SE,124,4.0,8.0,80,0.02,,,0.03,,2013-02-26 18:32:00,
2013-02-26 13:42:00,37.0,31.0,29.84,SE,124,4.0,8.0,80,0.02,,,0.03,,2013-02-26 18:42:00,
2013-02-26 13:52:00,36.0,32.0,29.80,ENE,62,3.0,11.0,84,0.03,,,0.05,,2013-02-26 18:52:00,
2013-02-26 14:01:00,36.0,32.0,29.81,ENE,70,2.0,8.0,85,0.05,,,0.07,,2013-02-26 19:01:00,
2013-02-26 14:11:00,36.0,32.0,29.81,ENE,70,2.0,8.0,85,0.05,,,0.07,,2013-02-26 19:11:00,
2013-02-26 14:22:00,36.0,32.0,29.80,ESE,106,3.0,5.0,86,0.05,,,0.07,,2013-02-26 19:22:00,
2013-02-26 14:32:00,36.0,33.0,29.79,ENE,62,3.0,6.0,87,0.07,,,0.10,,2013-02-26 19:32:00,
2013-02-26 14:42:00,36.0,33.0,29.79,ENE,62,3.0,6.0,87,0.07,,,0.10,,2013-02-26 19:42:00,
2013-02-26 14:52:00,36.0,33.0,29.77,ESE,107,2.0,6.0,89,0.07,,,0.12,,2013-02-26 19:52:00,
2013-02-26 15:01:00,36.0,33.0,29.76,ENE,62,3.0,10.0,89,0.08,,,0.15,,2013-02-26 20:01:00,
2013-02-26 15:11:00,36.0,33.0,29.76,ENE,62,3.0,10.0,89,0.08,,,0.15,,2013-02-26 20:11:00,
2013-02-26 15:21:00,36.0,33.0,29.75,ENE,71,4.0,9.0,89,0.13,,,0.20,,2013-02-26 20:21:00,
2013-02-26 15:32:00,37.0,34.0,29.75,ESE,111,2.0,5.0,90,0.16,,,0.26,,2013-02-26 20:32:00,
2013-02-26 15:41:00,37.0,34.0,29.75,ESE,111,2.0,5.0,90,0.16,,,0.26,,2013-02-26 20:41:00,
2013-02-26 15:52:00,37.0,34.0,29.73,NE,53,5.0,12.0,90,0.19,,,0.32,,2013-02-26 20:52:00,
2013-02-26 16:01:00,37.0,34.0,29.73,North,355,2.0,9.0,90,0.21,,,0.37,,2013-02-26 21:01:00,
2013-02-26 16:11:00,37.0,34.0,29.73,North,355,2.0,9.0,90,0.21,,,0.37,,2013-02-26 21:11:00,
2013-02-26 16:21:00,38.0,35.0,29.71,East,97,4.0,8.0,89,0.18,,,0.38,,2013-02-26 21:21:00,
2013-02-26 16:31:00,38.0,35.0,29.70,ESE,104,2.0,5.0,89,0.12,,,0.38,,2013-02-26 21:31:00,
2013-02-26 16:41:00,38.0,35.0,29.70,ESE,104,2.0,5.0,89,0.12,,,0.38,,2013-02-26 21:41:00,
2013-02-26 16:51:00,39.0,35.0,29.71,NE,55,4.0,9.0,84,0.06,,,0.38,,2013-02-26 21:51:00,
2013-02-26 17:01:00,41.0,36.0,29.68,SE,129,4.0,8.0,82,0.01,,,0.38,,2013-02-26 22:01:00,
2013-02-26 17:11:00,40.0,35.0,29.67,ENE,61,2.0,4.0,83,0.00,,,0.38,,2013-02-26 22:11:00,
2013-02-26 17:21:00,40.0,35.0,29.67,ENE,61,2.0,4.0,83,0.00,,,0.38,,2013-02-26 22:21:00,
2013-02-26 17:32:00,40.0,36.0,29.68,SE,132,1.0,5.0,85,0.00,,,0.38,,2013-02-26 22:32:00,
2013-02-26 17:41:00,40.0,36.0,29.68,SE,132,1.0,5.0,85,0.00,,,0.38,,2013-02-26 22:41:00,
2013-02-26 17:52:00,40.0,36.0,29.65,ENE,69,4.0,8.0,84,0.01,,,0.39,,2013-02-26 22:52:00,
2013-02-26 18:01:00,41.0,36.0,29.65,NE,44,4.0,10.0,82,0.01,,,0.39,,2013-02-26 23:01:00,
2013-02-26 18:11:00,41.0,36.0,29.65,NE,44,4.0,10.0,82,0.01,,,0.39,,2013-02-26 23:11:00,
2013-02-26 18:21:00,40.0,36.0,29.70,SE,132,3.0,6.0,85,0.04,,,0.42,,2013-02-26 23:21:00,
2013-02-26 18:32:00,40.0,36.0,29.68,East,86,1.0,9.0,87,0.11,,,0.49,,2013-02-26 23:32:00,
2013-02-26 18:42:00,40.0,36.0,29.68,East,86,1.0,9.0,87,0.11,,,0.49,,2013-02-26 23:42:00,
2013-02-26 18:52:00,39.0,36.0,29.72,South,171,0.0,3.0,90,0.15,,,0.54,,2013-02-26 23:52:00,
2013-02-26 19:01:00,38.0,36.0,29.71,ENE,78,0.0,2.0,91,0.20,,,0.59,,2013-02-27 00:01:00,
2013-02-26 19:11:00,38.0,36.0,29.71,ENE,78,0.0,2.0,91,0.20,,,0.59,,2013-02-27 00:11:00,
2013-02-26 19:22:00,38.0,36.0,29.70,East,88,0.0,2.0,92,0.20,,,0.63,,2013-02-27 00:22:00,
2013-02-26 19:32:00,37.0,35.0,29.69,ENE,77,1.0,4.0,92,0.18,,,0.67,,2013-02-27 00:32:00,
2013-02-26 19:42:00,37.0,35.0,29.69,ENE,77,1.0,4.0,92,0.18,,,0.67,,2013-02-27 00:42:00,
2013-02-26 19:52:00,37.0,35.0,29.69,ENE,78,3.0,7.0,92,0.14,,,0.69,,2013-02-27 00:52:00,
2013-02-26 20:01:00,37.0,35.0,29.68,ENE,63,2.0,4.0,91,0.09,,,0.69,,2013-02-27 01:01:00,
2013-02-26 20:11:00,37.0,35.0,29.68,ENE,63,2.0,4.0,91,0.09,,,0.69,,2013-02-27 01:11:00,
2013-02-26 20:22:00,38.0,35.0,29.68,East,95,2.0,5.0,90,0.06,,,0.69,,2013-02-27 01:22:00,
2013-02-26 20:32:00,37.0,34.0,29.67,ENE,71,1.0,5.0,90,0.01,,,0.69,,2013-02-27 01:32:00,
2013-02-26 20:42:00,37.0,34.0,29.67,ENE,71,1.0,5.0,90,0.01,,,0.69,,2013-02-27 01:42:00,
2013-02-26 20:52:00,37.0,34.0,29.67,NE,49,0.0,2.0,90,0.01,,,0.70,,2013-02-27 01:52:00,
2013-02-26 21:01:00,37.0,35.0,29.66,ENE,58,1.0,3.0,91,0.01,,,0.70,,2013-02-27 02:01:00,
2013-02-26 21:15:00,37.0,35.0,29.66,ENE,58,1.0,3.0,91,0.01,,,0.70,,2013-02-27 02:15:00,
2013-02-26 21:24:00,38.0,35.0,29.65,West,278,2.0,5.0,89,0.01,,,0.70,,2013-02-27 02:24:00,
2013-02-26 21:32:00,38.0,35.0,29.65,East,99,1.0,4.0,88,0.01,,,0.70,,2013-02-27 02:32:00,
2013-02-26 21:42:00,38.0,35.0,29.65,East,99,1.0,4.0,88,0.01,,,0.70,,2013-02-27 02:42:00,
2013-02-26 21:52:00,39.0,35.0,29.63,East,96,2.0,5.0,86,0.00,,,0.70,,2013-02-27 02:52:00,
2013-02-26 22:02:00,40.0,35.0,29.62,SE,138,2.0,7.0,83,0.00,,,0.70,,2013-02-27 03:02:00,
2013-02-26 22:11:00,40.0,35.0,29.62,SE,138,2.0,7.0,83,0.00,,,0.70,,2013-02-27 03:11:00,
2013-02-26 22:22:00,40.0,35.0,29.61,ENE,72,1.0,4.0,82,0.00,,,0.70,,2013-02-27 03:22:00,
2013-02-26 22:32:00,41.0,35.0,29.61,ESE,111,4.0,10.0,80,0.00,,,0.70,,2013-02-27 03:32:00,
2013-02-26 22:42:00,41.0,35.0,29.61,ESE,111,4.0,10.0,80,0.00,,,0.70,,2013-02-27 03:42:00,
2013-02-26 22:52:00,41.0,35.0,29.61,SSE,165,3.0,11.0,79,0.00,,,0.70,,2013-02-27 03:52:00,
2013-02-26 23:01:00,41.0,35.0,29.61,SSE,167,1.0,8.0,79,0.00,,,0.70,,2013-02-27 04:01:00,
2013-02-26 23:11:00,41.0,35.0,29.61,SSE,167,1.0,8.0,79,0.00,,,0.70,,2013-02-27 04:11:00,
2013-02-26 23:22:00,41.0,35.0,29.60,ESE,111,1.0,6.0,80,0.00,,,0.70,,2013-02-27 04:22:00,
2013-02-26 23:32:00,41.0,36.0,29.60,East,90,1.0,4.0,83,0.00,,,0.70,,2013-02-27 04:32:00,
2013-02-26 23:42:00,41.0,36.0,29.60,East,90,1.0,4.0,83,0.00,,,0.70,,2013-02-27 04:42:00,
2013-02-26 23:52:00,41.0,36.0,29.60,ESE,109,1.0,4.0,82,0.00,,,0.70,,2013-02-27 04:52:00,